Mount Panorama Real Estate, NSW, 2795 Bathurst Regional

Thinking about buying in Mount Panorama? Now could not be a better time, with just 195 residential dwellings it's a highly sought after location.

The average property price for this area is $6,210,000 with prices in this suburb ranging from $6,210,000 to $6,210,000.

Distance to the coast is 152 Km.

Mount Panorama Real Estate Market Outlook

In Mount Panorama there has been a history of lower than average prices and demand, offering opportunities for investors or first home owners, especially in the context of the growth in working from home. Low average incomes in Mount Panorama is reflected in smaller and lower quality accommodation. Over time this may change providsing long-term returns but in the short to medium term, prices are likely to be less than state averages. A mix of professions and above average income earners in Mount Panorama provides good demand. The lower than average housing turnover of these people also means fewer regular listings leading to periodic large price increases. Lower than average population density constrains growth in Mount Panorama to an extent. However, where buyers are willing to compromise on housing and lifestyle choice, there are affordable options. Higher than average industry presence in the wider area offering local employment yet with not a large negative impact on local amenity, provides good demand and price growth.

About

More

Local Schools


None within suburb boundary

(While the above schools are located with the suburb of Mount Panorama there may also be nearby schools whose catchments cover this suburb)

Local Crime Stats


Average Local Climate by month


(mm)
RAIN
Min (°C)
TEMP
Max (°C)
TEMP
Min (%)
HUMIDITY
Max (%)
HUMIDITY
(m/sec)
WIND
(MJ/sq m)
SOLAR
Jan2.113.127.939.693.91.622.0
Feb4.711.924.247.0951.818.7
Mar3.510.12250.795.71.615.4
Apr0.95.519.84596.01.414.0
May1.21.414.850.095.91.410.6
Jun1.40.911.658.996.21.48.6
Jul1.5-0.411.851.093.81.710.1
Aug2.2-0.412.445.393.61.912.4
Sept1.9216.540.694.31.816.4
Oct1.85.820.141.494.51.619.0
Nov2.77.723.334.792.32.023
Dec2.310.625.736.791.31.923.5

source: Australian Government Bureau of Meteorology

Recently Sold

10-01-2022 $4,700,000 448 CONROD STRAIGHT MOUNT PANORAMA 2795
16-10-2020 $1,600,000 489 CONROD STRAIGHT MOUNT PANORAMA 2795
01-10-2019 $5,900,000 428 CONROD STRAIGHT MOUNT PANORAMA 2795
02-09-2019 $2,225,000 212 MOUNTAIN STRAIGHT MOUNT PANORAMA 2795
10-04-2019 $1,970,000 98 MOUNTAIN STRAIGHT MOUNT PANORAMA 2795
10-09-2018 $2,500,000 435 CONROD STRAIGHT MOUNT PANORAMA 2795
12-01-2018 $2,700,000 505 CONROD STRAIGHT MOUNT PANORAMA 2795
16-10-2017 $950,000 162 MOUNTAIN STRAIGHT MOUNT PANORAMA 2795
02-08-2017 $1,312,500 29 HINTON RD MOUNT PANORAMA 2795
09-12-2016 $785,000 449 CONROD STRAIGHT MOUNT PANORAMA 2795
17-12-2015 $710,000 447 CONROD STRAIGHT MOUNT PANORAMA 2795
02-04-2015 $2,000,000 428 CONROD STRAIGHT MOUNT PANORAMA 2795
17-12-2014 $791,000 453 CONROD STRAIGHT MOUNT PANORAMA 2795
31-01-2014 $610,000 449 CONROD STRAIGHT MOUNT PANORAMA 2795
01-11-2012 $570,000 404 CONROD STRAIGHT MOUNT PANORAMA 2795
11-02-2012 $8,350,000 1 CONROD STRAIGHT MOUNT PANORAMA 2795
11-02-2012 $8,350,000 1 CONROD STRAIGHT MOUNT PANORAMA 2795
11-02-2012 $8,350,000 1 CONROD STRAIGHT MOUNT PANORAMA 2795
11-02-2012 $8,350,000 1 CONROD STRAIGHT MOUNT PANORAMA 2795
11-02-2012 $8,350,000 1 CONROD STRAIGHT MOUNT PANORAMA 2795
11-02-2012 $8,350,000 1 CONROD STRAIGHT MOUNT PANORAMA 2795
11-02-2012 $8,350,000 1 CONROD STRAIGHT MOUNT PANORAMA 2795
11-02-2012 $8,350,000 1 CONROD STRAIGHT MOUNT PANORAMA 2795
11-02-2012 $8,350,000 1 CONROD STRAIGHT MOUNT PANORAMA 2795
11-02-2012 $8,350,000 1 CONROD STRAIGHT MOUNT PANORAMA 2795
11-02-2012 $8,350,000 1 CONROD STRAIGHT MOUNT PANORAMA 2795
11-02-2012 $8,350,000 1 CONROD STRAIGHT MOUNT PANORAMA 2795
11-02-2012 $8,350,000 1 CONROD STRAIGHT MOUNT PANORAMA 2795
11-02-2012 $8,350,000 1 CONROD STRAIGHT MOUNT PANORAMA 2795
11-02-2012 $8,350,000 1 CONROD STRAIGHT MOUNT PANORAMA 2795
11-02-2012 $8,350,000 1 CONROD STRAIGHT MOUNT PANORAMA 2795
11-02-2012 $8,350,000 1 CONROD STRAIGHT MOUNT PANORAMA 2795
11-02-2012 $8,350,000 1 CONROD STRAIGHT MOUNT PANORAMA 2795
11-02-2012 $8,350,000 1 CONROD STRAIGHT MOUNT PANORAMA 2795
11-02-2012 $8,350,000 1 CONROD STRAIGHT MOUNT PANORAMA 2795
11-02-2012 $8,350,000 1 CONROD STRAIGHT MOUNT PANORAMA 2795
11-02-2012 $8,350,000 1 CONROD STRAIGHT MOUNT PANORAMA 2795
11-02-2012 $8,350,000 1 CONROD STRAIGHT MOUNT PANORAMA 2795
11-02-2012 $8,350,000 1 CONROD STRAIGHT MOUNT PANORAMA 2795
11-02-2012 $8,350,000 1 CONROD STRAIGHT MOUNT PANORAMA 2795
11-02-2012 $8,350,000 1 CONROD STRAIGHT MOUNT PANORAMA 2795
11-02-2012 $8,350,000 1 CONROD STRAIGHT MOUNT PANORAMA 2795
11-02-2012 $8,350,000 1 CONROD STRAIGHT MOUNT PANORAMA 2795
11-02-2012 $8,350,000 1 CONROD STRAIGHT MOUNT PANORAMA 2795
11-02-2012 $8,350,000 1 CONROD STRAIGHT MOUNT PANORAMA 2795
11-02-2012 $8,350,000 1 CONROD STRAIGHT MOUNT PANORAMA 2795
11-02-2012 $8,350,000 1 CONROD STRAIGHT MOUNT PANORAMA 2795
11-02-2012 $8,350,000 1 CONROD STRAIGHT MOUNT PANORAMA 2795
11-02-2012 $8,350,000 1 CONROD STRAIGHT MOUNT PANORAMA 2795
11-02-2012 $8,350,000 1 CONROD STRAIGHT MOUNT PANORAMA 2795

Residz covers 12m+ Australian properties and brings together a wealth of data to give you a better understanding of an area. From crime and schools to bush fire, flood risk and more. Begin your search for properties for sale or learn more about where you currently reside. Residz is an exciting next-generation Real Estate platform getting better by the day!